contact:dominique.lefevre@mio.osupytheas.fr, maurice.libes@osupytheas.fr, didier.mallarino@osupytheas.fr
Project:EMSO http://www.emso-fr.org/EMSO-France
Depth: 2436.0 m
Title:EMSO Ligure Ouest : Data MII capteur AQUADOPP
Date,Latitude,Longitude,X_East,Y_North,Z_Up,Amplitude_X,Amplitude_Y,Amplitude_Z,Batterie,SoundSpeed,Heading,Pitch,Roll,Pressure,TIS,Speed,Direction
, degrees North, degrees East, m.s-1, m.s-1,m.s-1, 1, 1, 1, Volt, m.s-1, degree, degree, degree, dbar, degree_C, m.s-1, degree
2022-07-24T00:04:03,42.805,6.029,0.056,0.005,-0.006,102.0,103.0,102.0,13.4,1505.2,320.1,-0.8,1.8,2470.914,13.28,0.056,84.9
2022-07-24T00:07:03,42.805,6.029,0.025,-0.011,-0.02,103.0,103.0,101.0,13.3,1505.2,332.9,-0.8,1.8,2470.931,13.28,0.027,113.7
2022-07-24T00:10:03,42.805,6.029,0.046,-0.013,-0.014,101.0,103.0,102.0,13.4,1505.2,326.7,-0.7,1.8,2470.959,13.28,0.047,105.8
2022-07-24T00:13:03,42.805,6.029,0.058,-0.003,-0.001,101.0,101.0,102.0,13.4,1505.2,320.5,-0.8,1.8,2470.934,13.28,0.058,93.0
2022-07-24T00:16:03,42.805,6.029,0.064,0.004,-0.021,103.0,102.0,101.0,13.3,1505.2,325.8,-0.7,1.8,2470.932,13.28,0.064,86.4
2022-07-24T00:19:03,42.805,6.029,0.062,-0.011,-0.017,103.0,101.0,101.0,13.3,1505.2,321.4,-0.7,1.8,2470.934,13.28,0.062,100.1
2022-07-24T00:22:03,42.805,6.029,0.055,-0.012,-0.019,103.0,103.0,100.0,13.3,1505.2,322.8,-0.7,1.8,2470.914,13.28,0.056,102.3
2022-07-24T00:25:03,42.805,6.029,0.041,-0.002,-0.027,102.0,103.0,101.0,13.4,1505.2,320.3,-0.7,1.8,2470.905,13.28,0.041,92.8
2022-07-24T00:28:03,42.805,6.029,0.052,-0.004,-0.001,103.0,103.0,100.0,13.4,1505.2,328.7,-0.8,1.8,2470.946,13.28,0.052,94.4
2022-07-24T00:31:03,42.805,6.029,0.013,0.001,-0.012,102.0,103.0,102.0,13.3,1505.2,329.3,-0.7,1.8,2470.92,13.28,0.013,85.6
2022-07-24T00:34:03,42.805,6.029,0.047,0.007,-0.032,102.0,103.0,102.0,13.3,1505.2,319.4,-0.8,1.8,2470.905,13.28,0.047,81.5
2022-07-24T00:37:03,42.805,6.029,0.043,0.0,-0.008,102.0,103.0,101.0,13.3,1505.2,323.1,-0.7,1.8,2470.906,13.28,0.043,90.0
2022-07-24T00:40:03,42.805,6.029,0.056,-0.027,-0.029,102.0,102.0,101.0,13.3,1505.2,326.3,-0.8,1.8,2470.903,13.28,0.062,115.7
2022-07-24T00:43:03,42.805,6.029,0.038,-0.008,-0.011,102.0,103.0,101.0,13.4,1505.2,333.9,-0.8,1.8,2470.921,13.28,0.038,101.9
2022-07-24T00:46:03,42.805,6.029,0.055,0.002,-0.016,102.0,103.0,100.0,13.3,1505.2,327.7,-0.8,1.8,2470.879,13.28,0.055,87.9
2022-07-24T00:49:03,42.805,6.029,0.046,-0.022,-0.022,102.0,103.0,101.0,13.4,1505.2,322.5,-0.8,1.8,2470.914,13.28,0.05,115.6
2022-07-24T00:52:03,42.805,6.029,0.027,0.001,-0.035,103.0,102.0,101.0,13.3,1505.2,325.5,-0.8,1.8,2470.898,13.28,0.027,87.9
2022-07-24T00:55:03,42.805,6.029,0.066,-0.016,-0.003,102.0,103.0,101.0,13.4,1505.2,329.0,-0.8,1.8,2470.955,13.28,0.067,103.6
2022-07-24T00:58:03,42.805,6.029,0.059,-0.006,0.01,102.0,102.0,101.0,13.4,1505.2,330.7,-0.8,1.8,2470.879,13.28,0.059,95.8
2022-07-24T01:04:03,42.805,6.029,0.084,-0.011,-0.022,104.0,105.0,102.0,13.4,1505.2,319.4,-0.8,1.8,2470.924,13.28,0.084,97.5
2022-07-24T01:07:03,42.805,6.029,0.048,0.0,-0.003,102.0,103.0,101.0,13.4,1505.2,329.5,-0.8,1.8,2470.954,13.28,0.048,90.0
2022-07-24T01:10:03,42.805,6.029,0.038,-0.008,-0.006,101.0,103.0,100.0,13.3,1505.2,330.3,-0.8,1.8,2470.936,13.28,0.038,101.9
2022-07-24T01:13:03,42.805,6.029,0.05,-0.01,-0.018,103.0,103.0,100.0,13.3,1505.2,321.8,-0.8,1.8,2470.924,13.28,0.05,101.3
2022-07-24T01:16:03,42.805,6.029,0.03,-0.004,-0.016,102.0,101.0,102.0,13.4,1505.2,328.9,-0.8,1.8,2470.926,13.28,0.03,97.6
2022-07-24T01:19:03,42.805,6.029,0.08,-0.021,-0.035,102.0,102.0,101.0,13.3,1505.2,328.9,-0.7,1.8,2470.906,13.28,0.082,104.7
2022-07-24T01:22:03,42.805,6.029,0.047,-0.01,-0.002,100.0,102.0,101.0,13.4,1505.2,325.5,-0.8,1.8,2470.94,13.28,0.048,102.0
2022-07-24T01:25:03,42.805,6.029,0.05,0.006,-0.008,100.0,103.0,103.0,13.3,1505.2,320.0,-0.8,1.8,2470.94,13.28,0.05,83.2
2022-07-24T01:28:03,42.805,6.029,0.021,0.01,-0.018,102.0,100.0,101.0,13.3,1505.2,331.6,-0.7,1.8,2470.896,13.28,0.023,64.5
2022-07-24T01:31:03,42.805,6.029,0.043,-0.002,0.011,103.0,102.0,101.0,13.3,1505.2,322.4,-0.7,1.8,2470.899,13.28,0.043,92.7
2022-07-24T01:34:03,42.805,6.029,0.038,0.021,0.023,103.0,102.0,100.0,13.4,1505.2,321.4,-0.7,1.8,2470.902,13.28,0.043,61.1
2022-07-24T01:37:03,42.805,6.029,0.04,-0.015,-0.019,102.0,104.0,99.0,13.3,1505.2,324.2,-0.8,1.8,2470.939,13.28,0.042,110.6
2022-07-24T01:40:03,42.805,6.029,0.024,0.014,-0.003,104.0,104.0,101.0,13.4,1505.2,319.8,-0.7,1.8,2470.903,13.28,0.027,59.7
2022-07-24T01:43:03,42.805,6.029,0.051,-0.009,-0.019,103.0,103.0,100.0,13.4,1505.2,327.9,-0.8,1.8,2470.924,13.28,0.051,100.0
2022-07-24T01:46:03,42.805,6.029,0.034,0.01,0.014,101.0,103.0,101.0,13.4,1505.2,328.3,-0.7,1.8,2470.924,13.28,0.035,73.6
2022-07-24T01:49:03,42.805,6.029,0.057,0.002,0.013,102.0,103.0,102.0,13.4,1505.2,324.5,-0.8,1.8,2470.941,13.28,0.057,88.0
2022-07-24T01:52:03,42.805,6.029,0.028,0.004,-0.024,102.0,104.0,100.0,13.4,1505.2,324.5,-0.8,1.8,2470.955,13.28,0.028,81.9
2022-07-24T01:55:03,42.805,6.029,0.048,-0.005,0.0,102.0,103.0,102.0,13.4,1505.2,325.8,-0.8,1.8,2470.934,13.28,0.048,95.9
2022-07-24T01:58:03,42.805,6.029,0.04,-0.007,-0.022,103.0,103.0,101.0,13.4,1505.2,330.7,-0.8,1.8,2470.957,13.28,0.04,99.9
2022-07-24T02:04:03,42.805,6.029,0.049,-0.002,-0.028,102.0,103.0,100.0,13.4,1505.2,323.7,-0.8,1.8,2470.953,13.28,0.049,92.3
2022-07-24T02:07:03,42.805,6.029,0.053,-0.01,-0.023,103.0,102.0,101.0,13.4,1505.2,327.8,-0.8,1.8,2470.958,13.28,0.053,100.7
2022-07-24T02:10:03,42.805,6.029,0.047,-0.007,0.022,102.0,102.0,101.0,13.4,1505.2,327.6,-0.7,1.9,2470.918,13.28,0.047,98.5
2022-07-24T02:13:03,42.805,6.029,0.025,-0.002,-0.027,102.0,102.0,102.0,13.4,1505.2,333.6,-0.8,1.9,2470.989,13.28,0.025,94.6
2022-07-24T02:16:03,42.805,6.029,0.057,-0.018,-0.015,102.0,103.0,101.0,13.4,1505.2,319.5,-0.7,1.8,2470.97,13.28,0.059,107.5
2022-07-24T02:19:03,42.805,6.029,0.057,-0.006,-0.027,102.0,101.0,102.0,13.4,1505.2,320.7,-0.8,1.8,2470.955,13.28,0.057,96.0
2022-07-24T02:22:03,42.805,6.029,0.052,0.015,-0.008,103.0,102.0,101.0,13.4,1505.2,326.0,-0.7,1.8,2470.968,13.28,0.054,73.9
2022-07-24T02:25:03,42.805,6.029,0.053,0.0,-0.033,103.0,102.0,102.0,13.3,1505.2,328.1,-0.7,1.8,2470.913,13.28,0.053,90.0
2022-07-24T02:28:03,42.805,6.029,0.047,0.004,-0.031,102.0,103.0,100.0,13.4,1505.2,324.3,-0.8,1.8,2470.906,13.28,0.047,85.1
2022-07-24T02:31:03,42.805,6.029,0.048,0.011,-0.009,102.0,103.0,102.0,13.4,1505.2,326.9,-0.8,1.8,2470.918,13.28,0.049,77.1
2022-07-24T02:34:03,42.805,6.029,0.023,-0.024,-0.05,103.0,102.0,101.0,13.4,1505.2,331.2,-0.8,1.8,2470.92,13.28,0.033,136.2
2022-07-24T02:37:03,42.805,6.029,0.027,0.013,0.023,103.0,101.0,101.0,13.4,1505.2,327.6,-0.7,1.8,2470.891,13.28,0.029,64.3
2022-07-24T02:40:03,42.805,6.029,0.028,0.003,-0.01,102.0,101.0,101.0,13.3,1505.2,325.7,-0.7,1.8,2470.954,13.28,0.028,83.9
2022-07-24T02:43:03,42.805,6.029,0.053,-0.009,-0.014,101.0,103.0,101.0,13.4,1505.2,329.9,-0.7,1.8,2470.912,13.28,0.053,99.6
2022-07-24T02:46:03,42.805,6.029,0.036,0.01,-0.016,102.0,103.0,101.0,13.4,1505.2,323.4,-0.8,1.8,2470.918,13.28,0.037,74.5
2022-07-24T02:49:03,42.805,6.029,0.043,0.024,0.002,102.0,104.0,100.0,13.4,1505.2,322.9,-0.7,1.8,2470.932,13.28,0.049,60.8
2022-07-24T02:52:03,42.805,6.029,0.047,0.0,-0.001,102.0,102.0,102.0,13.3,1505.2,322.4,-0.8,1.8,2470.921,13.28,0.047,90.0
2022-07-24T02:55:03,42.805,6.029,0.041,-0.014,-0.042,101.0,102.0,101.0,13.4,1505.2,323.6,-0.8,1.8,2470.977,13.28,0.043,108.9
2022-07-24T02:58:03,42.805,6.029,0.041,-0.014,-0.062,103.0,103.0,102.0,13.4,1505.2,324.5,-0.7,1.8,2470.945,13.28,0.043,108.9
2022-07-24T03:04:03,42.805,6.029,0.053,-0.018,-0.035,102.0,105.0,101.0,13.3,1505.2,322.1,-0.7,1.8,2470.965,13.28,0.055,108.8
2022-07-24T03:07:03,42.805,6.029,0.043,0.0,-0.049,103.0,103.0,100.0,13.4,1505.2,319.1,-0.8,1.8,2470.987,13.28,0.043,90.0
2022-07-24T03:10:03,42.805,6.029,0.058,0.01,-0.009,103.0,101.0,102.0,13.3,1505.2,321.1,-0.8,1.8,2470.951,13.28,0.058,80.2
2022-07-24T03:13:03,42.805,6.029,0.048,-0.018,-0.006,101.0,103.0,101.0,13.4,1505.2,326.8,-0.8,1.8,2470.983,13.28,0.051,110.6
2022-07-24T03:16:03,42.805,6.029,0.059,0.001,-0.013,103.0,101.0,101.0,13.3,1505.2,322.8,-0.7,1.8,2470.94,13.28,0.059,89.0
2022-07-24T03:19:03,42.805,6.029,0.035,-0.014,-0.027,103.0,102.0,102.0,13.4,1505.2,333.1,-0.7,1.8,2470.986,13.28,0.037,111.8
2022-07-24T03:22:03,42.805,6.029,0.048,-0.014,-0.017,103.0,102.0,101.0,13.4,1505.2,326.0,-0.7,1.8,2470.978,13.28,0.05,106.3
2022-07-24T03:25:03,42.805,6.029,0.047,-0.009,-0.011,102.0,103.0,101.0,13.4,1505.2,323.1,-0.8,1.8,2470.941,13.28,0.047,100.8
2022-07-24T03:28:03,42.805,6.029,0.051,-0.004,-0.006,103.0,103.0,101.0,13.4,1505.2,327.9,-0.7,1.9,2470.959,13.28,0.051,94.5
2022-07-24T03:31:03,42.805,6.029,0.047,-0.001,0.003,101.0,103.0,101.0,13.4,1505.2,323.2,-0.8,1.8,2470.949,13.28,0.047,91.2
2022-07-24T03:34:03,42.805,6.029,0.043,0.022,0.002,102.0,105.0,101.0,13.3,1505.2,319.1,-0.8,1.8,2470.966,13.28,0.048,62.9
2022-07-24T03:37:03,42.805,6.029,0.034,0.013,0.005,102.0,102.0,100.0,13.4,1505.2,328.3,-0.7,1.8,2470.98,13.28,0.036,69.1
2022-07-24T03:40:03,42.805,6.029,0.029,0.005,-0.024,103.0,103.0,100.0,13.4,1505.2,319.1,-0.7,1.8,2470.933,13.28,0.029,80.2
2022-07-24T03:43:03,42.805,6.029,0.043,0.004,-0.023,102.0,103.0,101.0,13.4,1505.2,321.3,-0.8,1.8,2470.926,13.28,0.043,84.7
2022-07-24T03:46:03,42.805,6.029,0.041,0.012,0.023,103.0,103.0,101.0,13.4,1505.2,326.4,-0.8,1.8,2470.909,13.28,0.042,73.7
2022-07-24T03:49:03,42.805,6.029,0.029,-0.007,-0.028,102.0,103.0,102.0,13.4,1505.2,327.5,-0.8,1.8,2470.945,13.28,0.029,103.6
2022-07-24T03:52:03,42.805,6.029,0.051,0.006,0.002,103.0,102.0,101.0,13.4,1505.2,323.8,-0.7,1.8,2470.969,13.28,0.051,83.3
2022-07-24T03:55:03,42.805,6.029,0.041,-0.004,0.018,102.0,105.0,101.0,13.4,1505.2,323.4,-0.8,1.8,2470.962,13.28,0.041,95.6
2022-07-24T03:58:03,42.805,6.029,0.047,-0.011,-0.023,102.0,102.0,101.0,13.4,1505.2,322.4,-0.8,1.8,2470.959,13.28,0.048,103.2
2022-07-24T04:04:03,42.805,6.029,0.049,-0.001,-0.011,103.0,104.0,101.0,13.4,1505.2,330.2,-0.7,1.8,2470.992,13.28,0.049,91.2
2022-07-24T04:07:03,42.805,6.029,0.04,0.006,-0.009,103.0,102.0,102.0,13.4,1505.2,324.9,-0.8,1.9,2471.011,13.28,0.04,81.5
2022-07-24T04:10:03,42.805,6.029,0.021,-0.003,-0.013,103.0,103.0,101.0,13.4,1505.2,324.9,-0.8,1.8,2470.955,13.28,0.021,98.1
2022-07-24T04:13:03,42.805,6.029,0.034,-0.014,-0.029,103.0,103.0,101.0,13.4,1505.2,333.4,-0.7,1.8,2471.003,13.28,0.036,112.4
2022-07-24T04:16:03,42.805,6.029,0.042,0.001,0.008,103.0,102.0,101.0,13.4,1505.2,332.9,-0.8,1.8,2470.957,13.28,0.042,88.6
2022-07-24T04:19:03,42.805,6.029,0.025,-0.016,-0.031,103.0,102.0,100.0,13.4,1505.2,334.1,-0.8,1.8,2470.918,13.28,0.029,122.6
2022-07-24T04:22:03,42.805,6.029,0.033,-0.01,-0.004,100.0,103.0,102.0,13.4,1505.2,331.3,-0.7,1.8,2470.906,13.28,0.034,106.9
2022-07-24T04:25:03,42.805,6.029,0.025,-0.002,-0.033,103.0,103.0,102.0,13.3,1505.2,331.3,-0.7,1.8,2470.94,13.28,0.025,94.6
2022-07-24T04:28:03,42.805,6.029,0.018,0.01,-0.008,102.0,103.0,101.0,13.3,1505.2,327.3,-0.7,1.8,2470.966,13.28,0.02,60.9
2022-07-24T04:31:03,42.805,6.029,0.055,-0.013,-0.046,102.0,103.0,100.0,13.4,1505.2,324.5,-0.8,1.8,2470.977,13.28,0.056,103.3
2022-07-24T04:34:03,42.805,6.029,0.045,-0.021,-0.043,103.0,103.0,101.0,13.4,1505.2,326.4,-0.7,1.8,2470.962,13.28,0.049,115.0
2022-07-24T04:37:03,42.805,6.029,0.048,-0.007,-0.018,103.0,101.0,102.0,13.4,1505.2,321.3,-0.7,1.8,2470.942,13.28,0.048,98.3
2022-07-24T04:40:03,42.805,6.029,0.05,-0.008,-0.015,103.0,103.0,100.0,13.3,1505.2,326.7,-0.8,1.8,2470.963,13.28,0.05,99.1
2022-07-24T04:43:03,42.805,6.029,0.039,-0.006,-0.001,102.0,103.0,101.0,13.4,1505.2,323.1,-0.8,1.8,2470.971,13.28,0.039,98.7
2022-07-24T04:46:03,42.805,6.029,0.034,0.016,0.012,103.0,103.0,101.0,13.4,1505.2,323.3,-0.7,1.8,2470.923,13.28,0.037,64.8
2022-07-24T04:49:03,42.805,6.029,0.029,-0.006,-0.02,102.0,103.0,100.0,13.4,1505.2,326.6,-0.8,1.8,2470.962,13.28,0.029,101.7
2022-07-24T04:52:03,42.805,6.029,0.036,-0.001,-0.051,102.0,103.0,101.0,13.3,1505.2,318.7,-0.8,1.8,2470.966,13.28,0.036,91.6
2022-07-24T04:55:03,42.805,6.029,0.042,-0.017,0.0,103.0,102.0,103.0,13.3,1505.2,327.8,-0.8,1.8,2470.935,13.28,0.045,112.0
2022-07-24T04:58:03,42.805,6.029,0.004,-0.002,-0.014,101.0,103.0,102.0,13.4,1505.2,332.0,-0.7,1.8,2470.943,13.28,0.004,116.6
2022-07-24T05:04:03,42.805,6.029,0.031,0.0,-0.039,102.0,102.0,101.0,13.4,1505.2,324.4,-0.8,1.8,2470.968,13.28,0.03,90.0
2022-07-24T05:07:03,42.805,6.029,0.053,-0.013,-0.039,103.0,101.0,101.0,13.4,1505.2,324.1,-0.7,1.8,2470.952,13.28,0.054,103.8
2022-07-24T05:10:03,42.805,6.029,0.04,-0.014,-0.023,103.0,102.0,101.0,13.4,1505.2,332.9,-0.8,1.8,2470.983,13.28,0.042,109.3
2022-07-24T05:13:03,42.805,6.029,0.029,-0.01,-0.04,102.0,103.0,101.0,13.3,1505.2,327.3,-0.8,1.8,2470.965,13.28,0.03,109.0
2022-07-24T05:16:03,42.805,6.029,0.042,0.0,-0.017,102.0,102.0,101.0,13.4,1505.2,327.9,-0.8,1.8,2470.962,13.28,0.042,90.0
2022-07-24T05:19:03,42.805,6.029,0.02,0.012,-0.022,103.0,102.0,101.0,13.3,1505.2,326.3,-0.8,1.8,2470.957,13.28,0.023,59.0
2022-07-24T05:22:03,42.805,6.029,0.033,0.005,-0.035,105.0,102.0,100.0,13.4,1505.2,320.7,-0.8,1.8,2470.946,13.28,0.033,81.4
2022-07-24T05:25:03,42.805,6.029,0.044,-0.016,0.0,103.0,102.0,101.0,13.4,1505.2,327.3,-0.8,1.8,2470.93,13.28,0.046,110.0
2022-07-24T05:28:03,42.805,6.029,0.042,-0.003,-0.014,103.0,103.0,101.0,13.4,1505.2,322.9,-0.8,1.9,2470.935,13.28,0.042,94.1
2022-07-24T05:31:03,42.805,6.029,0.047,-0.009,-0.011,101.0,102.0,101.0,13.4,1505.2,329.5,-0.8,1.8,2470.929,13.28,0.047,100.8
2022-07-24T05:34:03,42.805,6.029,0.021,-0.008,-0.025,102.0,102.0,101.0,13.3,1505.2,331.0,-0.8,1.8,2470.921,13.28,0.022,110.9
2022-07-24T05:37:03,42.805,6.029,0.039,-0.01,-0.027,102.0,102.0,101.0,13.4,1505.2,328.6,-0.7,1.8,2470.94,13.28,0.04,104.4
2022-07-24T05:40:03,42.805,6.029,0.05,-0.001,-0.029,103.0,102.0,101.0,13.4,1505.2,331.6,-0.7,1.8,2470.955,13.28,0.05,91.1
2022-07-24T05:43:03,42.805,6.029,0.035,-0.005,-0.038,102.0,103.0,101.0,13.4,1505.2,332.7,-0.8,1.8,2470.887,13.28,0.035,98.1
2022-07-24T05:46:03,42.805,6.029,0.036,0.005,-0.008,102.0,103.0,101.0,13.3,1505.2,327.7,-0.7,1.8,2470.936,13.28,0.036,82.1
2022-07-24T05:49:03,42.805,6.029,0.039,0.001,-0.013,102.0,104.0,102.0,13.4,1505.2,323.6,-0.7,1.8,2470.929,13.28,0.039,88.5
2022-07-24T05:52:03,42.805,6.029,0.048,-0.002,-0.036,104.0,103.0,101.0,13.3,1505.2,332.2,-0.7,1.8,2470.942,13.28,0.048,92.4
2022-07-24T05:55:03,42.805,6.029,0.036,-0.003,-0.02,103.0,101.0,101.0,13.4,1505.2,331.7,-0.8,1.8,2470.98,13.28,0.036,94.8
2022-07-24T05:58:03,42.805,6.029,0.055,-0.009,-0.007,101.0,104.0,101.0,13.3,1505.2,328.0,-0.7,1.8,2470.91,13.28,0.055,99.3
2022-07-24T06:04:03,42.805,6.029,0.052,-0.01,0.001,103.0,103.0,101.0,13.4,1505.2,323.2,-0.8,1.8,2470.958,13.28,0.052,100.9
2022-07-24T06:07:03,42.805,6.029,0.03,0.007,-0.026,103.0,101.0,101.0,13.4,1505.2,321.7,-0.8,1.8,2470.951,13.28,0.03,76.9
2022-07-24T06:10:03,42.805,6.029,0.029,-0.015,-0.01,104.0,102.0,100.0,13.4,1505.2,325.5,-0.8,1.9,2470.973,13.28,0.032,117.4
2022-07-24T06:13:03,42.805,6.029,0.026,0.0,-0.03,101.0,103.0,102.0,13.4,1505.2,330.3,-0.8,1.8,2470.902,13.28,0.026,90.0
2022-07-24T06:16:03,42.805,6.029,0.025,0.0,-0.027,102.0,103.0,100.0,13.4,1505.2,321.5,-0.8,1.8,2470.932,13.28,0.025,90.0
2022-07-24T06:19:03,42.805,6.029,0.042,-0.025,-0.064,102.0,102.0,102.0,13.4,1505.2,327.0,-0.8,1.8,2470.909,13.28,0.048,120.8
2022-07-24T06:22:03,42.805,6.029,0.05,0.015,-0.008,102.0,102.0,101.0,13.3,1505.2,319.7,-0.8,1.8,2470.943,13.28,0.052,73.3
2022-07-24T06:25:03,42.805,6.029,0.035,-0.025,-0.038,102.0,103.0,101.0,13.4,1505.2,320.8,-0.8,1.8,2470.917,13.28,0.043,125.5
2022-07-24T06:28:03,42.805,6.029,0.053,0.023,-0.002,102.0,103.0,101.0,13.4,1505.2,330.3,-0.8,1.8,2470.896,13.28,0.057,66.5
2022-07-24T06:31:03,42.805,6.029,0.049,0.002,-0.011,102.0,103.0,101.0,13.4,1505.2,327.5,-0.7,1.8,2470.892,13.28,0.049,87.7
2022-07-24T06:34:03,42.805,6.029,0.043,0.0,-0.025,101.0,102.0,101.0,13.4,1505.2,330.2,-0.7,1.8,2470.914,13.28,0.043,90.0
2022-07-24T06:43:03,42.805,6.029,0.055,-0.008,-0.034,102.0,103.0,101.0,13.4,1505.2,333.4,-0.8,1.8,2470.984,13.28,0.055,98.3
2022-07-24T06:46:03,42.805,6.029,0.054,0.0,-0.015,102.0,101.0,102.0,13.4,1505.2,321.7,-0.8,1.8,2471.015,13.28,0.053,90.0
2022-07-24T06:49:03,42.805,6.029,0.045,-0.009,-0.001,102.0,103.0,101.0,13.3,1505.2,320.0,-0.8,1.8,2471.002,13.28,0.045,101.3
2022-07-24T06:52:03,42.805,6.029,0.046,-0.001,0.018,103.0,103.0,101.0,13.4,1505.2,328.2,-0.8,1.8,2470.946,13.28,0.046,91.2
2022-07-24T06:55:03,42.805,6.029,0.044,0.001,-0.008,102.0,103.0,101.0,13.4,1505.2,328.7,-0.7,1.8,2470.931,13.28,0.044,88.7
2022-07-24T06:58:03,42.805,6.029,0.048,-0.005,-0.017,102.0,102.0,101.0,13.4,1505.2,319.6,-0.7,1.8,2470.917,13.28,0.048,95.9
2022-07-24T07:04:03,42.805,6.029,0.059,0.006,-0.039,102.0,103.0,101.0,13.3,1505.2,326.6,-0.7,1.8,2470.933,13.28,0.059,84.2
2022-07-24T07:07:03,42.805,6.029,0.036,-0.008,-0.019,102.0,102.0,102.0,13.4,1505.2,334.1,-0.8,1.8,2470.955,13.28,0.036,102.5
2022-07-24T07:10:03,42.805,6.029,0.053,-0.019,-0.013,104.0,102.0,101.0,13.4,1505.2,327.4,-0.8,1.8,2470.945,13.28,0.056,109.7
2022-07-24T07:13:03,42.805,6.029,0.058,-0.014,-0.018,103.0,102.0,101.0,13.3,1505.2,322.9,-0.8,1.8,2470.927,13.28,0.059,103.6
2022-07-24T07:16:03,42.805,6.029,0.036,-0.003,-0.01,102.0,101.0,101.0,13.3,1505.2,324.6,-0.7,1.8,2470.896,13.28,0.036,94.8
2022-07-24T07:19:03,42.805,6.029,0.023,-0.004,-0.038,103.0,102.0,101.0,13.3,1505.2,327.6,-0.8,1.8,2470.906,13.28,0.023,99.9
2022-07-24T07:22:03,42.805,6.029,0.044,-0.002,-0.002,102.0,102.0,101.0,13.4,1505.2,318.9,-0.8,1.8,2470.946,13.28,0.044,92.6
2022-07-24T07:25:03,42.805,6.029,0.051,-0.002,-0.013,102.0,103.0,101.0,13.4,1505.2,329.6,-0.8,1.8,2470.916,13.28,0.051,92.2
2022-07-24T07:28:03,42.805,6.029,0.027,0.007,-0.011,102.0,102.0,101.0,13.3,1505.2,321.5,-0.8,1.8,2470.865,13.28,0.027,75.5
2022-07-24T07:31:03,42.805,6.029,0.037,-0.016,-0.046,103.0,102.0,101.0,13.4,1505.2,329.1,-0.7,1.8,2470.895,13.28,0.04,113.4
2022-07-24T07:34:03,42.805,6.029,0.036,0.019,-0.016,102.0,102.0,101.0,13.4,1505.2,319.1,-0.7,1.8,2470.883,13.28,0.04,62.2
2022-07-24T07:37:03,42.805,6.029,0.014,-0.015,-0.006,103.0,102.0,101.0,13.4,1505.2,333.1,-0.8,1.8,2470.896,13.28,0.02,137.0
2022-07-24T07:40:03,42.805,6.029,0.058,-0.012,0.008,101.0,103.0,100.0,13.4,1505.2,328.6,-0.8,1.8,2470.885,13.28,0.059,101.7
2022-07-24T07:43:03,42.805,6.029,0.039,0.004,-0.012,103.0,102.0,101.0,13.3,1505.2,321.7,-0.8,1.8,2470.915,13.28,0.039,84.1
2022-07-24T07:46:03,42.805,6.029,0.038,0.013,0.004,102.0,102.0,101.0,13.4,1505.2,323.2,-0.8,1.8,2470.884,13.28,0.04,71.1
2022-07-24T07:49:03,42.805,6.029,0.053,-0.039,-0.033,101.0,102.0,101.0,13.3,1505.2,329.9,-0.8,1.8,2470.85,13.28,0.065,126.3
2022-07-24T07:52:03,42.805,6.029,0.021,0.024,-0.017,102.0,103.0,102.0,13.4,1505.2,321.2,-0.8,1.8,2470.907,13.28,0.031,41.2
2022-07-24T07:55:03,42.805,6.029,0.056,-0.003,-0.005,102.0,102.0,101.0,13.4,1505.2,331.9,-0.8,1.8,2470.914,13.28,0.056,93.1
2022-07-24T07:58:03,42.805,6.029,0.068,-0.006,-0.009,103.0,102.0,102.0,13.4,1505.2,327.4,-0.8,1.8,2470.867,13.28,0.068,95.0
2022-07-24T08:04:03,42.805,6.029,0.054,-0.024,-0.028,102.0,102.0,102.0,13.4,1505.2,327.6,-0.8,1.8,2470.931,13.28,0.059,114.0
2022-07-24T08:07:03,42.805,6.029,0.01,0.011,-0.02,102.0,102.0,101.0,13.3,1505.2,320.0,-0.8,1.8,2470.931,13.28,0.014,42.3
2022-07-24T08:10:03,42.805,6.029,0.028,0.004,-0.036,103.0,102.0,101.0,13.3,1505.2,329.0,-0.8,1.8,2470.942,13.28,0.028,81.9
2022-07-24T08:13:03,42.805,6.029,0.046,-0.011,-0.029,102.0,103.0,101.0,13.4,1505.2,328.6,-0.8,1.8,2470.933,13.28,0.047,103.4
2022-07-24T08:16:03,42.805,6.029,0.01,0.005,-0.057,103.0,103.0,101.0,13.4,1505.2,325.5,-0.8,1.8,2470.928,13.28,0.011,63.4
2022-07-24T08:19:03,42.805,6.029,0.044,-0.002,-0.033,100.0,103.0,102.0,13.4,1505.2,324.0,-0.7,1.8,2470.884,13.28,0.044,92.6
2022-07-24T08:22:03,42.805,6.029,0.034,0.02,0.0,103.0,102.0,101.0,13.3,1505.2,325.5,-0.8,1.8,2470.887,13.28,0.039,59.5
2022-07-24T08:25:03,42.805,6.029,0.043,-0.006,-0.032,102.0,102.0,100.0,13.4,1505.2,324.7,-0.8,1.8,2470.867,13.28,0.043,97.9
2022-07-24T08:28:03,42.805,6.029,0.042,-0.016,-0.025,102.0,103.0,102.0,13.4,1505.2,322.6,-0.8,1.8,2470.904,13.28,0.044,110.9
2022-07-24T08:31:03,42.805,6.029,0.042,-0.007,-0.026,103.0,104.0,101.0,13.4,1505.2,325.8,-0.7,1.8,2470.914,13.28,0.042,99.5
2022-07-24T08:34:03,42.805,6.029,0.023,0.018,-0.019,102.0,103.0,100.0,13.4,1505.2,324.1,-0.7,1.8,2470.892,13.28,0.029,52.0
2022-07-24T08:37:03,42.805,6.029,0.042,-0.013,-0.016,102.0,102.0,102.0,13.4,1505.2,332.6,-0.8,1.8,2470.898,13.28,0.043,107.2
2022-07-24T08:40:03,42.805,6.029,0.029,0.005,-0.024,102.0,103.0,100.0,13.4,1505.2,330.0,-0.7,1.8,2470.891,13.28,0.029,80.2
2022-07-24T08:43:03,42.805,6.029,0.032,0.001,-0.036,102.0,103.0,100.0,13.4,1505.2,324.3,-0.8,1.8,2470.871,13.28,0.032,88.2
2022-07-24T08:46:03,42.805,6.029,0.048,-0.02,-0.008,102.0,101.0,101.0,13.4,1505.2,327.6,-0.8,1.8,2470.845,13.28,0.052,112.6
2022-07-24T08:49:03,42.805,6.029,0.026,-0.017,-0.038,102.0,102.0,101.0,13.4,1505.2,328.6,-0.7,1.8,2470.846,13.28,0.031,123.2
2022-07-24T08:52:03,42.805,6.029,0.039,-0.008,-0.009,102.0,104.0,102.0,13.4,1505.2,331.9,-0.8,1.8,2470.844,13.28,0.039,101.6
2022-07-24T08:55:03,42.805,6.029,0.038,-0.006,-0.044,102.0,102.0,102.0,13.4,1505.2,327.8,-0.7,1.9,2470.84,13.28,0.038,99.0
2022-07-24T08:58:03,42.805,6.029,0.023,0.0,-0.035,103.0,103.0,100.0,13.4,1505.2,325.4,-0.8,1.8,2470.887,13.28,0.023,90.0
2022-07-24T09:04:03,42.805,6.029,0.043,-0.008,-0.012,102.0,101.0,102.0,13.4,1505.2,332.0,-0.7,1.8,2470.896,13.28,0.043,100.5
2022-07-24T09:07:03,42.805,6.029,0.027,0.021,0.004,102.0,101.0,100.0,13.4,1505.2,327.8,-0.7,1.8,2470.911,13.28,0.034,52.1
2022-07-24T09:10:03,42.805,6.029,0.045,0.006,-0.036,102.0,103.0,100.0,13.4,1505.2,318.5,-0.8,1.8,2470.926,13.28,0.045,82.4
2022-07-24T09:13:03,42.805,6.029,0.045,-0.006,-0.034,101.0,102.0,102.0,13.3,1505.2,324.9,-0.7,1.8,2470.889,13.28,0.045,97.6
2022-07-24T09:16:03,42.805,6.029,0.044,-0.002,0.001,103.0,102.0,100.0,13.4,1505.2,322.1,-0.7,1.8,2470.889,13.28,0.044,92.6
2022-07-24T09:19:03,42.805,6.029,0.016,-0.026,-0.041,102.0,102.0,101.0,13.4,1505.2,332.4,-0.7,1.8,2470.854,13.28,0.03,148.4
2022-07-24T09:22:03,42.805,6.029,0.019,0.01,-0.014,103.0,101.0,101.0,13.4,1505.2,325.2,-0.7,1.8,2470.869,13.28,0.021,62.2
2022-07-24T09:25:03,42.805,6.029,0.033,0.008,-0.016,102.0,103.0,100.0,13.4,1505.2,321.9,-0.8,1.8,2470.867,13.28,0.033,76.4
2022-07-24T09:28:03,42.805,6.029,0.018,-0.001,-0.014,101.0,102.0,101.0,13.3,1505.2,323.1,-0.8,1.8,2470.826,13.28,0.018,93.2
2022-07-24T09:31:03,42.805,6.029,0.035,-0.003,-0.044,103.0,102.0,101.0,13.3,1505.2,325.3,-0.8,1.8,2470.856,13.28,0.035,94.9
2022-07-24T09:34:03,42.805,6.029,0.031,-0.003,-0.029,102.0,104.0,101.0,13.4,1505.2,329.5,-0.8,1.8,2470.82,13.28,0.031,95.5
2022-07-24T09:37:03,42.805,6.029,0.032,-0.013,-0.031,102.0,102.0,101.0,13.4,1505.2,326.1,-0.7,1.8,2470.831,13.28,0.034,112.1
2022-07-24T09:40:03,42.805,6.029,0.032,0.009,-0.055,101.0,103.0,102.0,13.4,1505.2,325.2,-0.8,1.8,2470.884,13.28,0.033,74.3
2022-07-24T09:43:03,42.805,6.029,0.03,0.011,-0.033,102.0,102.0,101.0,13.3,1505.2,331.1,-0.7,1.8,2470.814,13.28,0.031,69.9
2022-07-24T09:46:03,42.805,6.029,0.054,-0.008,-0.015,102.0,103.0,101.0,13.4,1505.2,326.1,-0.7,1.8,2470.843,13.28,0.054,98.4
2022-07-24T09:49:03,42.805,6.029,0.035,0.014,-0.008,102.0,102.0,101.0,13.4,1505.2,324.0,-0.8,1.8,2470.856,13.28,0.037,68.2
2022-07-24T09:52:03,42.805,6.029,0.006,0.004,-0.017,102.0,102.0,101.0,13.4,1505.2,325.8,-0.8,1.8,2470.829,13.28,0.007,56.3
2022-07-24T09:55:03,42.805,6.029,0.04,-0.015,-0.042,103.0,103.0,101.0,13.4,1505.2,327.4,-0.8,1.8,2470.838,13.28,0.042,110.6
2022-07-24T09:58:03,42.805,6.029,0.029,0.006,-0.019,102.0,104.0,100.0,13.4,1505.2,328.0,-0.8,1.8,2470.856,13.28,0.029,78.3
2022-07-24T10:04:03,42.805,6.029,0.044,0.009,0.012,103.0,102.0,102.0,13.4,1505.2,319.1,-0.8,1.9,2470.896,13.28,0.044,78.4
2022-07-24T10:07:03,42.805,6.029,0.046,-0.005,0.018,103.0,103.0,100.0,13.3,1505.2,322.0,-0.8,1.8,2470.88,13.28,0.046,96.2